EW4767 Weather Reports


time (UTC)temp
C
wind
direction
speed
KPH
gust
KPH
rain 1hr
cm
rain 24hr
cm
rain mn
cm
humidity
%
barometer
mb
20260510203020 17 273 12.9 24.1 0.00 0.00 0.00 38 1012.3
20260510201517 17 319 8.0 22.5 0.00 0.00 0.00 41 1012.3
20260510200014 17 257 14.5 24.1 0.00 0.00 0.00 41 1012.3
20260510194514 17 306 9.7 29.0 0.00 0.00 0.00 42 1012.3
20260510193030 17 241 14.5 32.2 0.00 0.03 0.00 41 1012.3
20260510191534 17 247 11.3 20.9 0.00 0.03 0.00 47 1012.4
20260510190031 16 279 12.9 24.1 0.00 0.03 0.00 52 1012.5
20260510184520 16 330 9.7 24.1 0.00 0.03 0.00 56 1012.4
20260510183020 16 275 9.7 27.4 0.00 0.03 0.00 59 1012.7
20260510181518 16 325 9.7 24.1 0.00 0.03 0.00 58 1012.7
20260510180012 16 254 9.7 22.5 0.00 0.05 0.00 57 1012.8
20260510174523 16 329 6.4 19.3 0.00 0.10 0.00 56 1012.5
20260510173025 15 322 9.7 19.3 0.00 0.13 0.00 58 1012.5
20260510171532 15 300 8.0 16.1 0.00 0.15 0.00 62 1012.3
20260510170023 15 269 12.9 20.9 0.00 0.20 0.00 63 1012.6
20260510164521 15 322 14.5 24.1 0.00 0.23 0.00 63 1012.7
20260510163017 14 302 14.5 25.7 0.00 0.25 0.00 63 1012.6
20260510161526 14 340 8.0 19.3 0.00 0.28 0.00 67 1012.7
20260510160031 13 293 6.4 22.5 0.00 0.30 0.00 66 1012.8
20260510154528 13 352 6.4 22.5 0.00 0.36 0.00 70 1012.7
20260510153036 13 345 14.5 25.7 0.00 0.38 0.00 76 1012.7
20260510151526 13 301 8.0 24.1 0.00 0.46 0.00 83 1012.5
20260510150021 13 287 11.3 22.5 0.00 0.48 0.00 84 1012.1
20260510144516 12 321 8.0 19.3 0.00 0.56 0.00 84 1011.9
20260510143028 13 272 11.3 25.7 0.00 0.61 0.00 83 1011.8
20260510141513 13 249 6.4 12.9 0.00 0.69 0.00 86 1011.4
20260510140008 12 255 1.6 3.2 0.00 0.74 0.00 89 1011.3
20260510134508 12 312 1.6 4.8 0.00 0.76 0.00 89 1011.1
20260510133006 12 303 6.4 11.3 0.00 0.79 0.00 88 1011.4
20260510131522 12 318 1.6 6.4 0.00 0.81 0.00 89 1011.1
20260510130018 12 222 1.6 6.4 0.00 0.84 0.00 90 1011.0
20260510124516 11 251 3.2 4.8 0.00 0.86 0.00 93 1010.7
20260510123014 11 258 1.6 4.8 0.00 0.89 0.00 94 1010.8
20260510121511 11 227 1.6 9.7 0.00 0.89 0.00 94 1010.7
20260510120010 11 267 1.6 4.8 0.00 0.91 0.00 95 1010.7
20260510114526 10 268 1.6 8.0 0.00 0.91 0.00 95 1010.3
20260510113034 10 148 3.2 4.8 0.00 0.91 0.00 95 1010.2
20260510111522 10 219 3.2 11.3 0.00 0.91 0.00 95 1010.3
20260510110036 10 196 1.6 8.0 0.00 0.91 0.00 96 1010.1
20260510104513 10 213 3.2 8.0 0.00 0.91 0.00 96 1010.0
20260510103012 10 255 3.2 9.7 0.00 0.91 0.00 96 1009.9
20260510101508 10 257 3.2 8.0 0.00 0.91 0.00 96 1009.7
20260510100031 10 238 0.0 3.2 0.00 0.91 0.00 96 1009.4
20260510094535 10 178 1.6 4.8 0.00 0.91 0.00 96 1009.2
20260510093022 10 246 3.2 6.4 0.00 0.91 0.00 96 1008.9
20260510091519 10 185 0.0 3.2 0.00 0.91 0.00 96 1008.7
20260510090015 10 288 0.0 6.4 0.00 0.91 0.00 96 1008.8
20260510084513 10 259 0.0 3.2 0.00 0.91 0.00 96 1008.6
20260510083027 10 257 1.6 3.2 0.00 0.91 0.00 96 1008.8
20260510081536 10 216 1.6 8.0 0.00 0.91 0.00 96 1008.8
20260510080039 10 213 1.6 4.8 0.00 0.91 0.00 96 1009.0
20260510074526 10 157 0.0 9.7 0.00 0.91 0.00 96 1008.5
20260510073032 10 132 1.6 3.2 0.00 0.91 0.00 95 1008.3
20260510071518 10 144 0.0 3.2 0.00 0.91 0.00 95 1008.7
20260510070013 10 154 0.0 3.2 0.00 0.91 0.00 95 1009.0
20260510064527 10 244 0.0 3.2 0.00 0.91 0.00 95 1009.2
20260510063034 10 257 0.0 3.2 0.00 0.91 0.00 94 1009.3
20260510061526 11 292 3.2 6.4 0.00 0.91 0.00 94 1009.5
20260510060034 11 292 3.2 4.8 0.00 0.91 0.00 94 1009.3
20260510054522 11 254 0.0 4.8 0.00 0.91 0.00 94 1009.1
20260510053018 11 154 1.6 9.7 0.00 0.91 0.00 94 1009.0
20260510051530 11 253 1.6 6.4 0.00 0.91 0.00 94 1008.7
20260510050029 11 176 1.6 4.8 0.00 0.91 0.00 94 1008.8
20260510044528 11 242 0.0 8.0 0.00 0.91 0.00 94 1008.7
20260510043025 11 230 3.2 9.7 0.00 0.91 0.00 94 1008.9
20260510041526 11 208 3.2 12.9 0.00 0.91 0.00 93 1008.9
20260510040023 11 261 1.6 6.4 0.00 0.91 0.00 93 1008.8
20260510034518 11 235 1.6 4.8 0.00 0.91 0.91 93 1008.8
20260510033016 11 290 1.6 3.2 0.00 0.91 0.91 94 1008.9
20260510031520 11 196 1.6 8.0 0.00 0.91 0.91 94 1008.6
20260510030007 11 165 1.6 6.4 0.00 0.91 0.91 94 1008.7
20260510024505 11 153 0.0 6.4 0.00 0.91 0.91 94 1009.0
20260510023024 11 98 0.0 3.2 0.00 0.91 0.91 94 1009.0
20260510021548 11 203 1.6 6.4 0.00 0.91 0.91 94 1008.9
20260510020016 11 201 3.2 9.7 0.00 0.91 0.91 94 1008.8
20260510014530 11 176 0.0 8.0 0.00 0.91 0.91 95 1009.0
20260510013012 11 152 1.6 9.7 0.00 0.91 0.91 95 1008.7
20260510011511 11 352 0.0 6.4 0.00 0.91 0.91 95 1009.1
20260510010017 11 162 1.6 4.8 0.00 0.91 0.91 95 1008.9
20260510004524 11 140 0.0 3.2 0.00 0.91 0.91 95 1008.7
20260510003023 11 217 0.0 3.2 0.00 0.91 0.91 95 1008.8
20260510001519 11 219 0.0 3.2 0.00 0.91 0.91 95 1008.6
20260510000016 11 79 0.0 3.2 0.00 0.91 0.91 95 1008.3
20260509234513 11 112 0.0 3.2 0.00 0.91 0.91 95 1008.1
20260509233008 11 112 0.0 3.2 0.00 0.91 0.91 95 1008.0
20260509231525 11 132 0.0 3.2 0.00 0.91 0.91 96 1007.8
20260509230034 11 109 0.0 3.2 0.00 0.91 0.91 96 1007.7
20260509224523 11 99 0.0 3.2 0.00 0.91 0.91 96 1007.9
20260509223019 11 160 0.0 3.2 0.00 0.91 0.91 96 1007.8
20260509221514 11 94 0.0 3.2 0.00 0.91 0.91 96 1007.8
20260509220015 10 51 0.0 3.2 0.00 0.91 0.91 96 1008.0
20260509214528 10 87 0.0 3.2 0.00 0.91 0.91 96 1008.3
20260509213031 10 87 0.0 3.2 0.00 0.91 0.91 96 1008.5
20260509211524 10 130 0.0 3.2 0.00 0.91 0.91 96 1008.6
20260509210024 10 49 0.0 3.2 0.00 0.91 0.91 96 1008.7
20260509204519 10 138 0.0 3.2 0.00 0.91 0.91 95 1008.7